Weather History for KMRH - October, 2012

Change the Weather History Date:

Thursday, October 25, 2012

  Actual Average Record
Temperature  
Mean Temperature 67 °F -  
Max Temperature 79 °F 74 °F 84 °F (1991)
Min Temperature 55 °F 55 °F 39 °F (2006)
Cooling Degree Days 2    
Growing Degree Days 17 (Base 50)    
Moisture  
Dew Point 60 °F    
Average Humidity 95    
Maximum Humidity 100    
Minimum Humidity 58    
Precipitation  
Precipitation 0.01 in - - ()
Sea Level Pressure  
Sea Level Pressure 30.12 in    
Wind  
Wind Speed 2 mph (NE)    
Max Wind Speed 9 mph    
Max Gust Speed -    
Visibility 4 miles    
Events Fog    
Averages and records for this station are not official NWS values.
T = Trace of Precipitation, MM = Missing Value Source: NWS Daily Summary

Daily Weather History Graph

Daily Weather History Graph

Search for Another Location

Airport or City:

Trip Planner

Search our weather history database for the weather conditions in past years. The results will help you decide how hot, cold, wet, or windy it might be!

Date:

Astronomy

Oct. 25, 2012 Rise Set
Actual Time 7:21 AM EDT 6:19 PM EDT
Civil Twilight 6:55 AM EDT 6:45 PM EDT
Nautical Twilight 6:25 AM EDT 7:14 PM EDT
Astronomical Twilight 5:56 AM EDT 7:44 PM EDT
Moon 3:57 PM EDT (10/25) 3:24 AM EDT (10/25)
Length of Visible Light 11h 49m
Length of Day
10h 58m
Waxing Gibbous, 84% of the Moon is Illuminated
Oct 25
Waxing Gibbous
Oct 29
Full
Nov 6
Last Quarter
Nov 13
New
Nov 20
First Quarter

Hourly Weather History & Observations

Time (EDT) Temp. Dew Point Humidity Pressure Visibility Wind Dir Wind Speed Gust Speed Precip Events Conditions
12:12 AM 62.6 °F 62.6 °F 100% 30.13 in 1.8 mi SSE 3.5 mph - N/A   Clear
12:23 AM 62.6 °F 62.6 °F 100% 30.13 in 0.8 mi Calm Calm - N/A   Clear
12:32 AM 64.4 °F 64.4 °F 100% 30.13 in 1.8 mi Calm Calm - N/A   Clear
12:56 AM 63.0 °F 62.1 °F 97% 30.14 in 9.0 mi Calm Calm - N/A   Clear
1:06 AM 60.8 °F 60.8 °F 100% 30.14 in 1.0 mi Calm Calm - N/A   Clear
1:13 AM 60.8 °F 60.8 °F 100% 30.14 in 0.5 mi Calm Calm - N/A Fog Fog
1:29 AM 62.6 °F 62.6 °F 100% 30.13 in 1.2 mi Calm Calm - N/A   Clear
1:37 AM 60.8 °F 60.8 °F 100% 30.14 in 9.0 mi Calm Calm - N/A   Clear
1:56 AM 61.0 °F 61.0 °F 100% 30.14 in 7.0 mi Calm Calm - N/A   Clear
2:56 AM 60.1 °F 60.1 °F 100% 30.12 in 5.0 mi Calm Calm - N/A   Clear
3:13 AM 60.8 °F 60.8 °F 100% 30.11 in 1.5 mi Calm Calm - N/A   Partly Cloudy
3:20 AM 59.0 °F 59.0 °F 100% 30.11 in 1.0 mi Calm Calm - N/A   Mist
3:25 AM 57.2 °F 57.2 °F 100% 30.11 in 2.0 mi Calm Calm - N/A   Partly Cloudy
3:37 AM 57.2 °F 57.2 °F 100% 30.11 in 1.5 mi Calm Calm - N/A   Partly Cloudy
3:42 AM 59.0 °F 59.0 °F 100% 30.11 in 3.0 mi Calm Calm - N/A   Partly Cloudy
3:45 AM 57.2 °F 57.2 °F 100% 30.11 in 1.2 mi Calm Calm - N/A   Scattered Clouds
3:47 AM 57.2 °F 57.2 °F 100% 30.11 in 0.8 mi Calm Calm - N/A   Mist
3:56 AM 57.9 °F 57.9 °F 100% 30.12 in 2.0 mi Calm Calm - N/A   Partly Cloudy
4:00 AM 57.2 °F 57.2 °F 100% 30.11 in 1.0 mi Calm Calm - N/A   Mist
4:07 AM 57.2 °F 57.2 °F 100% 30.11 in 0.5 mi Calm Calm - N/A Fog Fog
4:15 AM 59.0 °F 59.0 °F 100% 30.11 in 2.0 mi Calm Calm - N/A   Scattered Clouds
4:25 AM 55.4 °F 55.4 °F 100% 30.11 in 7.0 mi Calm Calm - N/A   Scattered Clouds
4:41 AM 57.2 °F 57.2 °F 100% 30.11 in 1.5 mi Calm Calm - N/A   Scattered Clouds
4:43 AM 57.2 °F 57.2 °F 100% 30.11 in 0.8 mi Calm Calm - N/A   Mist
4:52 AM 57.2 °F 57.2 °F 100% 30.12 in 1.5 mi Calm Calm - N/A   Partly Cloudy
4:54 AM 57.2 °F 57.2 °F 100% 30.12 in 4.0 mi Calm Calm - N/A   Partly Cloudy
4:56 AM 57.9 °F 57.9 °F 100% 30.12 in 5.0 mi Calm Calm - N/A   Partly Cloudy
5:56 AM 60.1 °F 60.1 °F 100% 30.13 in 2.5 mi Calm Calm - 0.01 in   Clear
6:06 AM 60.8 °F 60.8 °F 100% 30.13 in 4.0 mi Calm Calm - N/A   Clear
6:30 AM 60.8 °F 60.8 °F 100% 30.13 in 1.5 mi Calm Calm - N/A   Clear
6:39 AM 59.0 °F 59.0 °F 100% 30.13 in 0.8 mi Calm Calm - N/A   Clear
6:46 AM 59.0 °F 59.0 °F 100% 30.13 in 1.0 mi Calm Calm - N/A   Mist
6:56 AM 59.0 °F 59.0 °F 100% 30.14 in 0.8 mi NE 3.5 mph - N/A   Mist
7:04 AM 60.8 °F 60.8 °F 100% 30.13 in 1.2 mi NE 4.6 mph - N/A   Partly Cloudy
7:10 AM 60.8 °F 60.8 °F 100% 30.13 in 3.0 mi NE 5.8 mph - N/A   Partly Cloudy
7:18 AM 60.8 °F 60.8 °F 100% 30.13 in 2.5 mi NE 5.8 mph - N/A   Mostly Cloudy
7:29 AM 60.8 °F 60.8 °F 100% 30.13 in 3.0 mi NE 6.9 mph - N/A   Scattered Clouds
7:34 AM 62.6 °F 62.6 °F 100% 30.14 in 1.8 mi NE 6.9 mph - N/A   Mostly Cloudy
7:37 AM 62.6 °F 62.6 °F 100% 30.14 in 0.8 mi NE 6.9 mph - N/A   Mist
8:02 AM 62.6 °F 62.6 °F 100% 30.14 in 3.0 mi NE 5.8 mph - N/A   Mostly Cloudy
8:10 AM 62.6 °F 62.6 °F 100% 30.15 in 5.0 mi ENE 5.8 mph - N/A   Scattered Clouds
9:56 AM 72.0 °F 64.9 °F 78% 30.17 in 10.0 mi NE 4.6 mph - N/A   Clear
11:56 AM 78.1 °F 64.9 °F 64% 30.16 in 10.0 mi NE 6.9 mph - N/A   Clear
2:56 PM 79.0 °F 63.0 °F 58% 30.10 in 10.0 mi NE 9.2 mph - N/A   Clear
3:56 PM 79.0 °F 63.0 °F 58% 30.10 in 10.0 mi ENE 4.6 mph - N/A   Clear
4:56 PM 77.0 °F 64.0 °F 64% 30.10 in 10.0 mi ESE 3.5 mph - N/A   Clear
5:56 PM 73.9 °F 63.0 °F 68% 30.11 in 10.0 mi NE 4.6 mph - N/A   Clear
6:56 PM 70.0 °F 63.0 °F 78% 30.12 in 10.0 mi NE 4.6 mph - N/A   Clear
7:56 PM 68.0 °F 61.0 °F 78% 30.12 in 10.0 mi ENE 3.5 mph - N/A   Clear
9:56 PM 66.0 °F 62.1 °F 87% 30.10 in 10.0 mi NE 4.6 mph - N/A   Unknown